This demonstration page uses our WeatherBlox Daily Observations layout. Learn more.

Left ArrowRight Arrow

39.08367, -84.50855

Hourly Observations for April 10, 2015

Temp ( °F °C ) Dew Point ( °F °C ) Humidity (%) Winds ( mph kmh ) Pressure ( in mb ) Visibility ( mi km ) Precip ( " mm )
12:53 am 00:53 Clear 71 21.7 61 16.1 71 71 SSW 20 31 29.73 1007 10 16 N/A
1:53 am 01:53 Partly Cloudy 71 21.7 61 16.1 71 71 SSW 15 24 29.72 1007 10 16 N/A
2:49 am 02:49 Mostly Cloudy with Nearby Thunderstorms 70 21 64 18 83 83 SW 25 41 29.71 1006 3 5 0.07 1.78
2:53 am 02:53 Mostly Cloudy with Nearby Thunderstorms 70 21.1 64 17.8 82 82 SW 20 31 29.70 1006 3 5 0.07 1.78
3:00 am 03:00 Windy with Storms Likely 70 21 64 18 83 83 SSW 26 43 29.71 1006 10 16 N/A
3:25 am 03:25 Cloudy with Nearby Thunderstorms 66 19 N/A N/A WSW 26 43 29.74 1007 8 13 0.03 0.76
3:36 am 03:36 Cloudy with Light Rain 64 18 N/A N/A WSW 21 33 29.74 1007 10 16 N/A
3:53 am 03:53 Cloudy with Light Rain 64 18 N/A N/A SW 15 24 29.74 1007 10 16 0.03 0.76
4:53 am 04:53 Mostly Cloudy with Light Rain 63 17 N/A N/A SSW 8 13 29.67 1005 10 16 0.12 3.05
5:35 am 05:35 Mostly Cloudy 63 17 N/A N/A SW 17 28 29.74 1007 10 16 N/A
5:53 am 05:53 Cloudy 63 17 N/A N/A WSW 18 30 29.72 1007 10 16 N/A
6:53 am 06:53 Cloudy 59 15 52 11.1 78 78 WSW 18 30 29.76 1008 10 16 N/A
7:53 am 07:53 Cloudy 55 12.8 47 8.3 74 74 W 15 24 29.82 1010 10 16 N/A
8:32 am 08:32 Mostly Cloudy 54 12 46 8 77 77 WSW 14 22 29.88 1012 10 16 N/A
8:53 am 08:53 Cloudy 54 12.2 47 8.3 77 77 WSW 14 22 29.87 1011 10 16 N/A
9:53 am 09:53 Cloudy 53 11.7 44 6.7 72 72 W 14 22 29.91 1013 10 16 N/A
10:26 am 10:26 Mostly Cloudy 54 12 43 6 67 67 W 18 30 29.94 1014 10 16 N/A
10:53 am 10:53 Mostly Cloudy 53 11.7 42 5.6 66 66 W 20 31 29.95 1014 10 16 N/A
11:53 am 11:53 Partly Cloudy 55 12.8 42 5.6 62 62 WNW 18 30 29.99 1016 10 16 N/A
12:53 pm 12:53 Partly Cloudy 54 12.2 41 5 62 62 W 16 26 30.01 1016 10 16 N/A
1:53 pm 13:53 Sunny 56 13.3 42 5.6 60 60 WSW 12 19 30.02 1017 10 16 N/A
2:53 pm 14:53 Sunny 59 15 42 5.6 54 54 W 10 17 30.02 1017 10 16 N/A
3:53 pm 15:53 Sunny 60 15.6 40 4.4 47 47 W 8 13 30.02 1017 10 16 N/A
4:53 pm 16:53 Sunny 61 16.1 40 4.4 46 46 WSW 10 17 30.01 1016 10 16 N/A
5:53 pm 17:53 Sunny 62 16.7 36 2.2 38 38 W 16 26 30.01 1016 10 16 N/A
6:53 pm 18:53 Sunny 61 16.1 35 1.7 38 38 WSW 14 22 30.00 1016 10 16 N/A
7:53 pm 19:53 Sunny 58 14.4 38 3.3 48 48 SW 9 15 30.00 1016 10 16 N/A
8:53 pm 20:53 Clear 54 12.2 42 5.6 64 64 SSW 8 13 30.03 1017 10 16 N/A
9:53 pm 21:53 Clear 53 11.7 42 5.6 66 66 SSW 9 15 30.05 1018 10 16 N/A
10:53 pm 22:53 Clear 54 12.2 39 3.9 57 57 SSW 10 17 30.04 1017 10 16 N/A
11:53 pm 23:53 Mostly Clear 52 11.1 39 3.9 61 61 SW 9 15 30.06 1018 10 16 N/A

Powered by AerisWeather